Glasgow, KY

3:43 AM CDT on July 28, 2017 (GMT -0500)
Glasgow Municipal

Weather History for KGLW - January, 2013

Change the Weather History Date:

Saturday, January 5, 2013

  Actual Average Record
Temperature  
Mean Temperature 32 °F -  
Max Temperature 45 °F 43 °F 67 °F (1955)
Min Temperature 19 °F 24 °F -4 °F (1959)
Degree Days  
Heating Degree Days 33    
Moisture  
Dew Point 4 °F    
Average Humidity 35    
Maximum Humidity 86    
Minimum Humidity 8    
Precipitation  
Precipitation 0.00 in - - ()
Sea Level Pressure  
Sea Level Pressure 30.31 in    
Wind  
Wind Speed 2 mph (SSW)    
Max Wind Speed 8 mph    
Max Gust Speed 9 mph    
Visibility 9 miles    
Events      
Averages and records for this station are not official NWS values.
T = Trace of Precipitation, MM = Missing Value Source: NWS Daily Summary

Daily Weather History Graph

Daily Weather History Graph

Search for Another Location

Airport or City:

Trip Planner

Search our weather history database for the weather conditions in past years. The results will help you decide how hot, cold, wet, or windy it might be!

Date:

Astronomy

Jan. 05, 2013 Rise Set
Actual Time 6:57 AM CST 4:41 PM CST
Civil Twilight 6:28 AM CST 5:10 PM CST
Nautical Twilight 5:56 AM CST 5:42 PM CST
Astronomical Twilight 5:24 AM CST 6:13 PM CST
Moon 12:08 AM CST (1/5) 11:26 AM CST (1/5)
Length of Visible Light 10h 41m
Length of Day
9h 43m
Last Quarter, 44% of the Moon is Illuminated
Jan 5
Last Quarter
Jan 11
New
Jan 18
First Quarter
Jan 26
Full
Feb 3
Last Quarter

Hourly Weather History & Observations

Time (CST) Temp. Windchill Dew Point Humidity Pressure Visibility Wind Dir Wind Speed Gust Speed Precip Events Conditions
12:15 AM 22.8 °F - 19.2 °F 86% 30.38 in 7.0 mi Calm Calm - N/A   Clear
12:35 AM - - - N/A% 30.38 in 7.0 mi Calm Calm - N/A   Clear
12:55 AM - - - N/A% 30.38 in 7.0 mi Calm Calm - N/A   Clear
1:15 AM - - - N/A% 30.38 in 7.0 mi Calm Calm - N/A   Clear
1:35 AM 21.9 °F - 17.1 °F 82% 30.38 in 7.0 mi Calm Calm - N/A   Clear
1:55 AM - - - N/A% 30.38 in 7.0 mi Calm Calm - N/A   Clear
2:15 AM - - - N/A% 30.38 in 7.0 mi Calm Calm - N/A   Clear
2:35 AM - - - N/A% 30.38 in 7.0 mi Calm Calm - N/A   Clear
2:55 AM 21.4 °F - 17.8 °F 86% 30.38 in 7.0 mi Calm Calm - N/A   Clear
3:15 AM 20.7 °F - 16.3 °F 83% 30.39 in 7.0 mi Calm Calm - N/A   Clear
3:35 AM - - - N/A% 30.39 in 7.0 mi Calm Calm - N/A   Clear
3:55 AM - - - N/A% 30.39 in 7.0 mi Calm Calm - N/A   Clear
4:15 AM - - - N/A% 30.40 in 7.0 mi Calm Calm - N/A   Clear
4:35 AM - - - N/A% 30.40 in 7.0 mi Calm Calm - N/A   Clear
4:55 AM - - - N/A% 30.39 in 7.0 mi Calm Calm - N/A   Clear
5:15 AM 19.9 °F - 16.2 °F 85% 30.39 in 7.0 mi Calm Calm - N/A   Clear
5:55 AM 20.1 °F - 16.3 °F 85% 30.39 in 7.0 mi Calm Calm - N/A   Clear
6:15 AM 19.8 °F - 16.2 °F 86% 30.40 in 7.0 mi Calm Calm - N/A   Clear
6:35 AM - - - N/A% 30.39 in 7.0 mi Calm Calm - N/A   Clear
7:15 AM 19.8 °F - 16.2 °F 86% 30.39 in 7.0 mi Calm Calm - N/A   Clear
7:35 AM 20.1 °F - 15.6 °F 83% 30.40 in 10.0 mi Calm Calm - N/A   Clear
7:55 AM 21.4 °F - 17.2 °F 84% 30.40 in 7.0 mi Calm Calm - N/A   Clear
8:15 AM 23.7 °F - 19.4 °F 84% 30.40 in 7.0 mi Calm Calm - N/A   Clear
8:35 AM 25.9 °F - 19.2 °F 76% 30.39 in 7.0 mi Calm Calm - N/A   Clear
8:55 AM 27.9 °F - 18.0 °F 66% 30.39 in 10.0 mi Calm Calm - N/A   Clear
9:15 AM 30.0 °F - 15.6 °F 55% 30.39 in 10.0 mi Calm Calm - N/A   Clear
9:55 AM 36.3 °F 33.7 °F 11.1 °F 35% 30.38 in 10.0 mi South 3.5 mph - N/A   Clear
10:15 AM 38.7 °F 34.3 °F 6.3 °F 26% 30.38 in 10.0 mi SSW 5.8 mph - N/A   Clear
10:55 AM 40.1 °F 36.1 °F 2.5 °F 21% 30.36 in 10.0 mi SSW 5.8 mph - N/A   Clear
11:15 AM 42.1 °F 37.7 °F -0.4 °F 17% 30.34 in 10.0 mi SSW 6.9 mph - N/A   Clear
11:35 AM 41.0 °F 36.4 °F -0.9 °F 17% 30.33 in 10.0 mi South 6.9 mph - N/A   Clear
11:55 AM 42.3 °F 38.6 °F -3.8 °F 14% 30.32 in 10.0 mi SSW 5.8 mph - N/A   Clear
12:15 PM 44.1 °F 40.1 °F -8.5 °F 11% 30.29 in 10.0 mi SSE 6.9 mph - N/A   Clear
12:35 PM 43.9 °F 39.3 °F -12.5 °F 9% 30.28 in 10.0 mi SW 8.1 mph - N/A   Clear
12:55 PM 44.2 °F 40.3 °F -14.6 °F 8% 30.27 in 10.0 mi SW 6.9 mph - N/A   Clear
1:15 PM 44.2 °F 40.3 °F -12.3 °F 9% 30.27 in 10.0 mi SW 6.9 mph - N/A   Clear
1:35 PM 43.9 °F 40.5 °F -10.5 °F 10% 30.26 in 10.0 mi SSW 5.8 mph - N/A   Clear
1:55 PM 44.8 °F 41.0 °F -9.9 °F 10% 30.24 in 10.0 mi South 6.9 mph - N/A   Clear
2:15 PM 45.5 °F 44.2 °F -13.0 °F 8% 30.26 in 10.0 mi SSW 3.5 mph 9.2 mph N/A   Mostly Cloudy
2:35 PM 45.0 °F 40.6 °F -14.1 °F 8% 30.25 in 10.0 mi SW 8.1 mph - N/A   Overcast
2:55 PM 44.2 °F 39.7 °F -12.8 °F 9% 30.25 in 10.0 mi WSW 8.1 mph - N/A   Overcast
3:15 PM 43.9 °F 39.9 °F -8.7 °F 11% 30.25 in 10.0 mi WSW 6.9 mph - N/A   Overcast
3:35 PM 43.9 °F 39.9 °F -8.1 °F 11% 30.24 in 10.0 mi WSW 6.9 mph - N/A   Overcast
3:55 PM 43.5 °F 41.9 °F -5.6 °F 13% 30.25 in 10.0 mi SSW 3.5 mph - N/A   Overcast
4:15 PM 42.8 °F 41.1 °F -3.1 °F 15% 30.25 in 10.0 mi SSW 3.5 mph - N/A   Overcast
5:15 PM 41.5 °F 38.6 °F -2.7 °F 16% 30.25 in 10.0 mi SSW 4.6 mph - N/A   Overcast
5:35 PM 41.4 °F - -1.8 °F 16% 30.24 in 10.0 mi Calm Calm - N/A   Overcast
5:55 PM 41.0 °F 39.0 °F -0.8 °F 17% 30.25 in 10.0 mi SSW 3.5 mph - N/A   Overcast
6:15 PM 40.8 °F 38.8 °F 1.6 °F 19% 30.25 in 10.0 mi SSW 3.5 mph - N/A   Overcast
6:35 PM 40.5 °F 38.4 °F 1.4 °F 20% 30.25 in 10.0 mi SSW 3.5 mph - N/A   Overcast
6:55 PM 40.5 °F 38.4 °F 1.2 °F 19% 30.26 in 10.0 mi SW 3.5 mph - N/A   Overcast
7:15 PM 40.3 °F 38.2 °F 2.5 °F 21% 30.26 in 10.0 mi SSW 3.5 mph - N/A   Overcast
7:35 PM 40.3 °F - 2.3 °F 21% 30.26 in 10.0 mi Calm Calm - N/A   Overcast
8:15 PM 39.9 °F - 3.4 °F 22% 30.25 in 10.0 mi Calm Calm - N/A   Overcast
8:35 PM 39.7 °F 37.6 °F 3.2 °F 22% 30.24 in 10.0 mi SSW 3.5 mph - N/A   Overcast
8:55 PM 39.6 °F 37.4 °F 3.7 °F 23% 30.24 in 10.0 mi SSW 3.5 mph - N/A   Overcast
9:15 PM 39.4 °F - 4.1 °F 23% 30.23 in 10.0 mi Calm Calm - N/A   Overcast
9:35 PM 39.4 °F 37.2 °F 4.3 °F 23% 30.23 in 10.0 mi SW 3.5 mph - N/A   Overcast
9:55 PM 39.0 °F - 6.1 °F 26% 30.23 in 10.0 mi Calm Calm - N/A   Overcast
10:15 PM 39.2 °F - 5.4 °F 25% 30.23 in 10.0 mi Calm Calm - N/A   Overcast
10:35 PM 39.2 °F - 5.7 °F 25% 30.22 in 10.0 mi Calm Calm - N/A   Overcast
10:55 PM 38.5 °F - 8.4 °F 29% 30.22 in 10.0 mi Calm Calm - N/A   Overcast
11:15 PM 38.3 °F - 8.8 °F 30% 30.22 in 10.0 mi Calm Calm - N/A   Overcast
11:35 PM 38.5 °F - 8.1 °F 28% 30.21 in 10.0 mi Calm Calm - N/A   Overcast
11:55 PM 38.5 °F - 7.3 °F 28% 30.21 in 10.0 mi Calm Calm - N/A   Overcast